QPF
0.00 0.00 0.00 0.00 0.00 0.00 0.00 0.00 0.00 0.00 0.00 0.00 0.00 0.00 0.00 0.00 0.00 0.00 0.00 0.00 0.00 0.00 0.00 0.00 0.00 0.00 0.00 0.00 0.00 0.00 0.00 0.00 0.00 0.00 0.00 0.00 0.00 0.00 0.00 0.00 0.00 0.00 0.00 0.00 0.00 0.00 0.00
0.00 0.00 0.00 0.00 0.00 0.00 0.00 0.00 0.00 0.00 0.00 0.00 0.00 0.00 0.00 0.00 0.00 0.00 0.00 0.00 0.00 0.00 0.00 0.00 0.00 0.00 0.00 0.00 0.00 0.00 0.00 0.00 0.00 0.00 0.00 0.00 0.00 0.00 0.00 0.00 0.00 0.00 0.00 0.00 0.00 0.00 0.00
0.00 0.00 0.00 0.00 0.00 0.00 0.00 0.00 0.00 0.00 0.00 0.00 0.00 0.00 0.00 0.00 0.00 0.00 0.00 0.00 0.00 0.00 0.00 0.00 0.00 0.00 0.00 0.00 0.00 0.00 0.00 0.00 0.00 0.00 0.00 0.00 0.00 0.00 0.00 0.00 0.00 0.00 0.00 0.00 0.00 0.00 0.00
0.00 0.00 0.00 0.00 0.00 0.00 0.00 0.00 0.00 0.00 0.00 0.00 0.00 0.00 0.00 0.00 0.00 0.00 0.00 0.00 0.00 0.00 0.00 0.00 0.00 0.00 0.00 0.00 0.00 0.00 0.00 0.00 0.00 0.00 0.00 0.00 0.00 0.00 0.00 0.00 0.00 0.00 0.00 0.00 0.00 0.00 0.00
0.00 0.00 0.00 0.00 0.00 0.00 0.00 0.00 0.00 0.00 0.00 0.00 0.00 0.00 0.00 0.00 0.00 0.00 0.00 0.00 0.00 0.00 0.00 0.00 0.00 0.00 0.00 0.00 0.00 0.00 0.00 0.00 0.00 0.00 0.00 0.00 0.00 0.00 0.00 0.00 0.00 0.00 0.00 0.00 0.00 0.00 0.00
0.00 0.00 0.00 0.00 0.00 0.00 0.00 0.00 0.00 0.00 0.00 0.00 0.00 0.00 0.00 0.00 0.00 0.00 0.00 0.00 0.00 0.00 0.00 0.00 0.00 0.00 0.00 0.00 0.00 0.00 0.00 0.00 0.00 0.00 0.00 0.00 0.00 0.00 0.00 0.00 0.00 0.00 0.00 0.00 0.00 0.00 0.00
0.00 0.00 0.00 0.00 0.00 0.00 0.00 0.00 0.00 0.00 0.00 0.00 0.00 0.00 0.00 0.00 0.00 0.00 0.00 0.00 0.00 0.00 0.00 0.00 0.00 0.00 0.00 0.00 0.00 0.00 0.00 0.00 0.00 0.00 0.00 0.00 0.00 0.00 0.00 0.00 0.00 0.00 0.00 0.00 0.00 0.00 0.00
0.00 0.00 0.00 0.00 0.00 0.00 0.00 0.00 0.00 0.00 0.00 0.00 0.00 0.00 0.00 0.00 0.00 0.00 0.00 0.00 0.00 0.00 0.00 0.00 0.00 0.00 0.00 0.00 0.00 0.00 0.00 0.00 0.00 0.00 0.00 0.00 0.00 0.00 0.00 0.00 0.00 0.00 0.00 0.00 0.00 0.00 0.00
0.00 0.00 0.00 0.00 0.00 0.00 0.00 0.00 0.00 0.00 0.00 0.00 0.00 0.00 0.00 0.00 0.00 0.00 0.00 0.00 0.00 0.00 0.00 0.00 0.00 0.00 0.00 0.00 0.00 0.00 0.00 0.00 0.00 0.00 0.00 0.00 0.00 0.00 0.00 0.00 0.00 0.00 0.00 0.00 0.00 0.00 0.00
0.00 0.00 0.00 0.00 0.00 0.00 0.01 0.01 0.00 0.00 0.00 0.00 0.00 0.00 0.00 0.00 0.00 0.00 0.00 0.00 0.00 0.00 0.00 0.00 0.00 0.00 0.00 0.00 0.00 0.00 0.00 0.00 0.00 0.00 0.00 0.00 0.00 0.00 0.00 0.00 0.00 0.00 0.00 0.00 0.00 0.00 0.00
0.00 0.00 0.00 0.00 0.00 0.00 0.00 0.02 0.01 0.00 0.00 0.00 0.00 0.00 0.00 0.00 0.00 0.00 0.00 0.00 0.00 0.00 0.00 0.00 0.00 0.00 0.00 0.00 0.00 0.00 0.00 0.00 0.00 0.00 0.00 0.00 0.00 0.00 0.00 0.00 0.00 0.00 0.00 0.00 0.00 0.00 0.00
0.00 0.00 0.00 0.00 0.00 0.00 0.00 0.00 0.01 0.01 0.00 0.00 0.00 0.00 0.00 0.00 0.00 0.00 0.00 0.00 0.00 0.00 0.00 0.00 0.00 0.00 0.00 0.00 0.00 0.00 0.00 0.00 0.00 0.00 0.00 0.00 0.00 0.00 0.00 0.00 0.00 0.00 0.00 0.00 0.00 0.00 0.00
0.00 0.00 0.00 0.00 0.00 0.00 0.00 0.00 0.01 0.01 0.00 0.00 0.00 0.00 0.00 0.00 0.00 0.00 0.00 0.00 0.00 0.00 0.00 0.00 0.00 0.00 0.00 0.00 0.00 0.00 0.00 0.00 0.00 0.00 0.00 0.00 0.00 0.00 0.00 0.00 0.00 0.00 0.00 0.00 0.00 0.00 0.00
0.00 0.00 0.00 0.00 0.00 0.00 0.00 0.00 0.01 0.03 0.02 0.01 0.00 0.00 0.00 0.00 0.00 0.00 0.00 0.00 0.00 0.00 0.00 0.00 0.00 0.00 0.00 0.00 0.00 0.00 0.00 0.00 0.00 0.00 0.00 0.00 0.00 0.00 0.00 0.00 0.00 0.00 0.00 0.00 0.00 0.00 0.00
0.00 0.00 0.00 0.00 0.00 0.00 0.00 0.00 0.00 0.03 0.04 0.01 0.00 0.01 0.01 0.00 0.00 0.00 0.01 0.01 0.00 0.00 0.00 0.00 0.00 0.00 0.00 0.00 0.00 0.00 0.00 0.00 0.00 0.00 0.00 0.00 0.00 0.00 0.00 0.00 0.00 0.00 0.00 0.00 0.00 0.00 0.00
0.00 0.00 0.00 0.00 0.00 0.00 0.00 0.00 0.00 0.03 0.06 0.02 0.01 0.02 0.01 0.00 0.00 0.02 0.03 0.00 0.00 0.00 0.00 0.00 0.00 0.00 0.00 0.00 0.00 0.00 0.00 0.00 0.00 0.00 0.00 0.00 0.00 0.00 0.00 0.00 0.00 0.00 0.00 0.00 0.00 0.00 0.00
0.00 0.00 0.00 0.00 0.00 0.00 0.00 0.00 0.00 0.03 0.06 0.04 0.04 0.03 0.02 0.02 0.03 0.04 0.01 0.00 0.00 0.00 0.00 0.00 0.00 0.00 0.00 0.00 0.00 0.00 0.00 0.00 0.00 0.00 0.00 0.00 0.00 0.00 0.00 0.00 0.00 0.00 0.00 0.00 0.00 0.00 0.00
0.00 0.00 0.00 0.00 0.00 0.00 0.00 0.00 0.00 0.03 0.07 0.06 0.04 0.03 0.03 0.04 0.04 0.02 0.01 0.00 0.00 0.00 0.00 0.00 0.00 0.00 0.00 0.00 0.00 0.00 0.00 0.00 0.00 0.00 0.00 0.00 0.00 0.00 0.00 0.00 0.00 0.00 0.00 0.00 0.00 0.00 0.00
0.00 0.00 0.00 0.00 0.00 0.00 0.00 0.00 0.01 0.01 0.05 0.04 0.03 0.02 0.02 0.03 0.01 0.01 0.01 0.00 0.00 0.00 0.00 0.00 0.00 0.00 0.00 0.00 0.00 0.00 0.00 0.00 0.00 0.00 0.00 0.00 0.00 0.00 0.00 0.00 0.00 0.00 0.00 0.00 0.00 0.00 0.01
0.01 0.00 0.00 0.00 0.00 0.00 0.00 0.00 0.01 0.02 0.02 0.05 0.02 0.00 0.01 0.01 0.01 0.00 0.00 0.00 0.00 0.00 0.00 0.00 0.00 0.00 0.00 0.00 0.00 0.00 0.00 0.00 0.00 0.00 0.00 0.00 0.00 0.00 0.00 0.00 0.00 0.00 0.00 0.00 0.00 0.00 0.00
0.01 0.00 0.00 0.00 0.00 0.00 0.00 0.00 0.01 0.02 0.02 0.02 0.01 0.00 0.00 0.00 0.00 0.02 0.01 0.00 0.00 0.00 0.00 0.00 0.00 0.00 0.00 0.00 0.00 0.00 0.00 0.00 0.00 0.00 0.00 0.00 0.00 0.00 0.00 0.00 0.00 0.00 0.00 0.00 0.00 0.00 0.00
0.01 0.00 0.00 0.00 0.00 0.00 0.00 0.00 0.00 0.01 0.01 0.02 0.02 0.01 0.01 0.01 0.00 0.01 0.02 0.00 0.00 0.00 0.00 0.00 0.00 0.00 0.00 0.00 0.00 0.00 0.01 0.00 0.00 0.00 0.00 0.00 0.00 0.00 0.00 0.00 0.00 0.00 0.00 0.00 0.00 0.00 0.00
0.01 0.01 0.01 0.01 0.00 0.00 0.00 0.00 0.00 0.00 0.01 0.02 0.03 0.01 0.01 0.01 0.00 0.00 0.00 0.00 0.00 0.00 0.00 0.00 0.00 0.00 0.00 0.00 0.01 0.00 0.00 0.00 0.00 0.00 0.00 0.00 0.00 0.00 0.00 0.00 0.00 0.00 0.00 0.00 0.00 0.00 0.00
0.02 0.02 0.02 0.01 0.00 0.00 0.00 0.00 0.00 0.00 0.01 0.02 0.01 0.01 0.03 0.00 0.00 0.00 0.00 0.00 0.00 0.00 0.00 0.00 0.00 0.00 0.00 0.00 0.00 0.00 0.00 0.00 0.00 0.00 0.00 0.00 0.00 0.00 0.00 0.00 0.00 0.00 0.00 0.00 0.00 0.00 0.00
0.03 0.03 0.02 0.01 0.00 0.00 0.00 0.00 0.00 0.00 0.00 0.01 0.01 0.01 0.02 0.00 0.00 0.00 0.00 0.00 0.00 0.00 0.00 0.00 0.00 0.00 0.00 0.00 0.00 0.00 0.00 0.00 0.00 0.00 0.00 0.00 0.00 0.00 0.00 0.00 0.00 0.00 0.00 0.00 0.00 0.00 0.00
0.03 0.03 0.02 0.01 0.00 0.00 0.00 0.00 0.00 0.00 0.00 0.00 0.00 0.00 0.01 0.00 0.00 0.00 0.00 0.00 0.00 0.01 0.00 0.00 0.00 0.00 0.00 0.00 0.00 0.00 0.00 0.00 0.00 0.00 0.00 0.00 0.00 0.00 0.00 0.00 0.00 0.00 0.00 0.00 0.00 0.00 0.00
0.03 0.03 0.02 0.01 0.00 0.00 0.00 0.00 0.00 0.00 0.00 0.00 0.00 0.00 0.00 0.00 0.00 0.00 0.00 0.00 0.00 0.00 0.00 0.00 0.00 0.00 0.00 0.00 0.00 0.00 0.00 0.00 0.00 0.00 0.00 0.00 0.00 0.00 0.00 0.00 0.00 0.00 0.00 0.00 0.00 0.00 0.00
0.02 0.02 0.02 0.01 0.00 0.00 0.00 0.00 0.00 0.00 0.00 0.00 0.00 0.00 0.00 0.00 0.00 0.00 0.00 0.00 0.00 0.00 0.00 0.00 0.00 0.00 0.00 0.00 0.00 0.00 0.00 0.00 0.00 0.00 0.00 0.00 0.00 0.00 0.00 0.00 0.00 0.00 0.00 0.00 0.00 0.00 0.00
0.01 0.01 0.01 0.01 0.01 0.00 0.00 0.00 0.00 0.00 0.00 0.00 0.00 0.00 0.00 0.00 0.00 0.00 0.00 0.00 0.00 0.00 0.00 0.00 0.00 0.00 0.00 0.00 0.00 0.00 0.00 0.00 0.00 0.00 0.00 0.00 0.00 0.00 0.00 0.00 0.00 0.00 0.00 0.00 0.00 0.00 0.00
MSLP
1015.36 1015.57 1015.74 1016.04 1016.44 1016.41 1016.80 1017.26 1017.77 1017.98 1018.06 1018.23 1018.25 1018.17 1018.10 1017.69 1017.64 1017.44 1017.16 1016.62 1016.68 1015.60 1015.22 1014.85 1014.10 1014.05 1013.08 1010.81 1009.06 1009.99 1010.77 1010.84 1010.70 1010.09 1009.12 1008.69 1008.15 1007.50 1006.63 1005.69 1005.45 1005.48 1005.23 1004.58 1004.55 1004.62 1004.60
1014.95 1015.20 1015.16 1015.46 1016.12 1015.84 1016.33 1016.44 1017.24 1017.48 1017.57 1017.88 1017.87 1018.05 1017.86 1017.67 1017.27 1017.26 1016.79 1016.55 1016.17 1015.63 1014.97 1014.34 1014.01 1013.86 1012.59 1009.89 1009.61 1009.62 1009.56 1010.11 1009.13 1008.82 1008.37 1008.29 1007.95 1007.46 1006.67 1006.14 1005.53 1005.01 1005.21 1004.75 1004.43 1004.22 1003.99
1014.46 1014.60 1014.83 1015.11 1015.63 1015.98 1015.87 1015.96 1016.27 1016.98 1017.17 1017.29 1017.57 1017.78 1017.65 1017.64 1017.21 1016.82 1016.86 1016.25 1015.79 1015.22 1014.80 1013.97 1013.69 1013.30 1011.30 1010.08 1009.77 1009.53 1009.70 1008.88 1008.83 1008.44 1008.01 1008.07 1008.02 1007.86 1007.09 1006.34 1005.77 1005.61 1005.51 1004.75 1003.80 1003.23 1003.07
1014.41 1014.43 1014.39 1014.57 1014.93 1015.59 1015.65 1016.02 1015.72 1016.18 1016.62 1017.01 1016.98 1017.56 1017.38 1017.38 1017.21 1016.66 1016.49 1016.01 1015.23 1014.91 1014.51 1014.05 1013.32 1012.35 1010.17 1009.97 1009.54 1010.00 1009.36 1008.97 1009.00 1008.92 1008.51 1008.45 1008.48 1008.14 1007.30 1006.86 1006.08 1005.30 1004.79 1003.84 1002.48 1003.08 1003.32
1013.94 1014.38 1013.87 1014.10 1014.52 1014.93 1015.32 1015.69 1015.90 1015.64 1015.96 1016.70 1016.67 1017.18 1017.09 1017.25 1017.03 1016.72 1016.15 1015.66 1014.61 1014.62 1014.09 1014.23 1012.82 1011.44 1009.43 1010.25 1009.64 1009.51 1009.42 1008.70 1008.65 1008.74 1008.63 1008.63 1008.31 1007.82 1007.24 1006.92 1005.64 1004.11 1003.20 1002.60 1002.29 1003.17 1003.51
1013.75 1013.98 1013.71 1014.18 1014.08 1014.37 1014.80 1015.20 1015.54 1015.46 1015.76 1016.07 1016.39 1016.83 1016.93 1016.98 1017.00 1016.68 1015.84 1014.75 1013.86 1014.59 1014.06 1013.03 1012.04 1011.23 1009.99 1009.15 1009.20 1009.52 1009.42 1009.27 1008.63 1008.38 1008.44 1008.27 1007.77 1007.07 1006.47 1005.84 1004.03 1002.98 1002.35 1002.18 1002.32 1002.95 1003.19
1013.65 1013.54 1013.75 1013.69 1013.77 1013.85 1013.63 1014.38 1015.05 1015.10 1015.64 1015.67 1016.14 1016.46 1016.59 1016.99 1016.69 1016.68 1015.57 1013.75 1013.49 1013.89 1012.74 1010.92 1010.46 1009.74 1009.40 1009.70 1009.73 1009.39 1009.07 1008.92 1008.48 1008.18 1007.56 1007.39 1006.78 1005.57 1004.45 1004.58 1004.74 1004.58 1003.97 1002.97 1002.47 1002.56 1003.40
1012.80 1013.01 1013.42 1013.15 1013.08 1013.19 1013.41 1013.59 1014.18 1014.96 1014.75 1015.52 1015.85 1016.20 1016.36 1017.12 1016.49 1016.66 1015.77 1014.32 1013.83 1015.10 1012.73 1010.93 1010.44 1010.13 1009.86 1010.09 1008.83 1008.47 1008.89 1008.78 1008.12 1006.96 1007.04 1006.80 1006.16 1005.35 1005.49 1005.74 1005.75 1005.10 1004.29 1003.28 1002.77 1002.78 1002.98
1011.87 1012.52 1012.65 1012.86 1012.76 1013.05 1012.97 1012.88 1013.55 1014.23 1014.57 1015.27 1015.42 1016.00 1016.32 1016.97 1016.67 1016.10 1015.14 1014.21 1014.50 1014.53 1013.24 1010.19 1009.59 1009.43 1009.38 1010.15 1008.33 1007.64 1008.45 1007.93 1007.60 1007.03 1006.66 1005.90 1005.18 1006.07 1006.18 1005.64 1005.65 1005.19 1004.48 1003.89 1003.46 1003.44 1003.28
1011.04 1011.82 1011.88 1012.39 1012.35 1012.68 1013.05 1012.52 1012.42 1013.67 1014.36 1014.81 1015.26 1015.85 1016.39 1016.75 1016.98 1014.45 1014.51 1014.34 1014.64 1015.17 1012.59 1009.65 1009.25 1008.58 1009.29 1009.54 1008.50 1007.64 1007.64 1007.54 1007.35 1006.79 1006.52 1006.02 1005.57 1006.17 1005.93 1005.57 1005.36 1004.90 1004.84 1004.55 1004.18 1003.62 1002.27
1010.65 1011.17 1011.13 1011.69 1012.02 1012.51 1012.73 1012.69 1012.19 1012.91 1013.83 1014.21 1015.23 1015.72 1016.28 1016.33 1015.17 1014.49 1014.13 1014.79 1015.01 1014.98 1011.20 1008.57 1008.66 1008.96 1008.42 1008.83 1008.14 1007.96 1007.64 1007.56 1007.13 1006.55 1007.22 1005.42 1005.69 1005.97 1005.61 1005.28 1005.29 1005.24 1005.54 1005.37 1004.71 1003.62 1002.73
1009.70 1010.15 1010.62 1010.97 1011.32 1011.77 1011.89 1012.15 1012.00 1012.46 1013.27 1013.99 1014.70 1015.61 1016.07 1016.45 1015.46 1014.13 1014.74 1015.09 1015.07 1013.56 1009.31 1008.38 1008.29 1008.43 1008.42 1008.53 1008.06 1007.84 1007.67 1007.77 1007.18 1007.01 1006.50 1005.78 1005.72 1005.77 1005.70 1005.59 1005.42 1005.76 1005.88 1005.03 1003.84 1002.66 1001.68
1008.62 1009.10 1009.67 1010.11 1010.67 1011.02 1011.50 1011.74 1012.34 1012.03 1012.88 1013.43 1014.38 1015.37 1015.98 1014.45 1014.04 1013.93 1014.85 1014.85 1014.05 1010.64 1008.03 1007.75 1007.51 1007.74 1007.66 1007.95 1008.24 1007.98 1007.36 1007.01 1006.94 1006.54 1005.41 1004.94 1004.99 1005.63 1006.41 1006.16 1005.36 1005.98 1005.55 1004.31 1003.14 1001.41 1000.89
1007.43 1008.22 1008.66 1009.12 1009.49 1010.05 1010.95 1011.39 1011.89 1012.10 1012.03 1013.38 1014.30 1015.59 1015.29 1014.41 1014.24 1014.20 1014.45 1014.40 1011.75 1008.19 1006.98 1007.31 1007.30 1007.48 1007.62 1007.75 1008.29 1008.36 1007.46 1006.63 1006.46 1006.96 1006.25 1005.38 1005.10 1006.21 1006.74 1006.77 1006.23 1006.10 1006.40 1005.65 1004.16 1003.16 1002.01
1006.03 1006.77 1007.52 1008.12 1008.78 1009.44 1010.13 1010.84 1011.27 1011.52 1012.03 1013.36 1014.37 1015.18 1015.01 1014.30 1014.59 1014.34 1013.76 1012.79 1009.15 1008.13 1006.49 1007.18 1007.52 1007.29 1007.90 1008.43 1008.80 1008.74 1007.80 1006.83 1006.65 1007.27 1007.34 1006.83 1006.86 1007.09 1007.58 1007.51 1007.83 1006.56 1006.97 1007.00 1006.31 1006.02 1004.39
1004.71 1005.66 1006.47 1007.16 1007.90 1008.63 1009.18 1009.82 1010.47 1010.91 1011.78 1012.71 1013.35 1014.25 1014.06 1013.47 1014.75 1014.37 1013.76 1010.61 1009.02 1007.77 1007.09 1007.26 1006.69 1006.91 1007.27 1008.01 1008.70 1008.83 1007.57 1007.16 1007.49 1008.11 1008.74 1008.79 1008.71 1008.51 1008.29 1008.48 1008.19 1007.70 1007.62 1007.81 1008.41 1007.38 1005.21
1003.50 1004.41 1005.27 1006.08 1006.86 1007.69 1008.32 1009.15 1009.96 1010.77 1011.47 1011.83 1012.72 1013.13 1012.29 1013.40 1014.50 1014.26 1011.80 1009.67 1009.25 1008.22 1008.56 1008.28 1007.16 1007.25 1007.69 1007.87 1008.35 1008.34 1008.10 1008.32 1008.29 1009.08 1009.75 1010.24 1010.94 1010.55 1010.55 1009.37 1008.56 1008.40 1008.48 1008.61 1009.00 1008.98 1008.06
1002.25 1003.24 1003.96 1004.79 1005.75 1006.72 1007.49 1008.25 1008.96 1009.65 1010.17 1011.08 1010.94 1011.88 1012.29 1012.92 1013.71 1012.29 1010.30 1009.60 1009.18 1008.40 1009.06 1008.75 1008.31 1007.62 1007.99 1008.30 1008.72 1008.84 1008.71 1008.44 1009.11 1009.83 1010.54 1011.81 1011.99 1012.15 1011.47 1010.58 1010.32 1009.66 1009.07 1009.35 1010.01 1009.44 1009.22
1000.87 1001.86 1002.75 1003.60 1004.60 1005.52 1006.58 1007.26 1007.91 1008.67 1009.08 1009.53 1009.62 1011.58 1012.72 1012.10 1011.27 1010.25 1010.32 1009.86 1009.05 1008.91 1008.74 1008.93 1008.69 1008.38 1008.31 1008.72 1009.28 1009.02 1009.48 1009.99 1010.15 1010.96 1011.66 1013.14 1013.71 1013.55 1012.39 1011.33 1010.52 1010.08 1009.90 1009.51 1009.74 1010.47 1009.86
999.63 1000.55 1001.51 1002.51 1003.37 1004.50 1005.48 1006.22 1006.96 1007.78 1007.80 1008.36 1008.12 1010.20 1011.49 1011.38 1009.48 1009.18 1009.40 1008.93 1009.15 1009.27 1008.96 1009.09 1008.82 1008.96 1008.94 1009.26 1009.37 1009.65 1010.12 1010.86 1011.73 1012.44 1013.44 1014.45 1015.05 1014.68 1013.18 1011.31 1011.50 1011.36 1010.62 1010.47 1010.99 1010.99 1009.81
998.40 999.43 1000.44 1001.46 1002.00 1003.28 1004.37 1005.12 1005.88 1006.70 1006.65 1006.00 1006.24 1007.02 1007.82 1008.33 1008.07 1007.85 1008.49 1008.65 1009.01 1009.11 1009.40 1009.32 1009.02 1008.86 1009.28 1009.55 1009.81 1010.17 1011.05 1011.67 1012.95 1014.06 1014.46 1015.56 1015.60 1015.25 1013.87 1013.20 1012.67 1011.66 1011.41 1011.28 1011.27 1010.90 1010.22
997.05 998.29 999.30 1000.25 1000.95 1002.12 1003.36 1004.40 1005.04 1005.90 1005.93 1005.65 1004.67 1005.02 1006.61 1007.09 1008.04 1007.74 1007.68 1007.40 1008.07 1008.30 1008.56 1008.98 1008.81 1009.30 1009.63 1009.57 1010.16 1010.76 1011.76 1012.37 1012.82 1014.72 1015.29 1016.39 1016.13 1015.69 1014.39 1013.64 1012.60 1011.21 1010.75 1010.24 1010.24 1010.11 1009.65
995.83 997.11 998.14 999.28 1000.00 1001.23 1002.43 1003.04 1003.86 1004.60 1005.41 1004.17 1004.27 1004.42 1004.29 1005.44 1006.50 1007.16 1005.54 1006.66 1007.34 1008.28 1008.34 1008.62 1009.02 1009.72 1010.05 1010.28 1011.03 1012.52 1012.76 1013.23 1013.63 1014.39 1015.56 1016.65 1016.90 1016.14 1014.12 1013.29 1011.94 1010.41 1008.93 1008.59 1008.37 1008.35 1008.56
994.52 995.94 997.18 998.14 998.95 1000.38 1001.50 1002.39 1003.25 1004.34 1004.06 1003.92 1004.10 1004.60 1003.22 1003.71 1004.77 1004.90 1005.97 1006.45 1006.98 1007.52 1008.30 1008.95 1009.54 1010.07 1011.97 1012.57 1013.01 1013.51 1014.07 1014.55 1014.54 1014.99 1015.37 1016.35 1016.70 1016.11 1014.31 1013.51 1011.10 1008.38 1008.49 1008.54 1008.30 1008.21 1008.36
993.53 994.95 996.12 997.01 998.24 999.52 1000.70 1001.58 1002.64 1003.87 1004.29 1003.63 1004.06 1003.77 1002.57 1003.42 1004.35 1005.33 1005.72 1006.22 1007.53 1008.21 1008.99 1009.99 1011.05 1011.86 1012.70 1013.39 1014.44 1014.94 1014.91 1015.18 1014.59 1015.18 1015.46 1015.91 1016.26 1015.48 1014.09 1012.18 1009.26 1008.34 1008.56 1009.43 1009.32 1009.12 1009.31
992.77 994.01 995.16 996.39 997.73 998.88 999.83 1000.77 1001.73 1002.15 1003.09 1003.64 1003.59 1003.47 1002.30 1002.62 1003.66 1004.66 1005.51 1006.12 1006.90 1008.17 1010.56 1012.47 1013.70 1013.91 1013.95 1014.53 1015.19 1014.56 1014.40 1013.62 1013.43 1014.64 1015.88 1016.19 1015.92 1015.12 1013.92 1012.19 1009.58 1008.56 1009.60 1010.21 1010.87 1009.81 1009.54
992.03 993.33 994.59 995.84 997.14 998.27 999.16 1000.02 1000.75 1001.46 1001.75 1002.79 1003.05 1003.27 1002.55 1003.09 1004.70 1005.17 1005.10 1005.72 1006.90 1008.20 1010.76 1013.15 1014.29 1014.99 1014.71 1014.81 1014.86 1014.25 1013.24 1012.54 1012.20 1012.69 1014.15 1015.05 1014.99 1014.05 1013.03 1011.62 1009.63 1009.24 1010.39 1011.28 1011.58 1011.14 1011.24
991.61 992.84 994.03 995.23 996.48 997.54 998.47 999.31 999.94 1000.45 1001.21 1002.25 1002.71 1002.86 1002.81 1004.72 1007.26 1007.48 1007.49 1007.05 1007.46 1008.26 1010.12 1013.09 1014.43 1015.20 1015.59 1015.15 1014.38 1013.32 1012.28 1011.78 1011.17 1010.80 1011.38 1012.05 1012.69 1012.46 1012.19 1011.23 1010.17 1009.87 1011.20 1011.89 1011.32 1011.56 1011.90
991.17 992.36 993.63 994.89 995.89 996.80 997.70 998.42 999.08 999.44 1000.58 1001.28 1002.75 1003.36 1003.45 1005.67 1009.33 1009.53 1009.92 1010.16 1010.01 1009.63 1010.23 1012.03 1012.28 1013.06 1013.57 1013.89 1013.58 1012.89 1012.37 1011.42 1010.94 1010.74 1010.43 1010.92 1010.64 1010.63 1010.68 1009.85 1010.18 1010.69 1010.95 1011.23 1011.32 1011.57 1011.80
Thickness
5640 5646 5650 5654 5654 5660 5663 5664 5664 5669 5673 5674 5678 5682 5685 5691 5693 5697 5701 5707 5708 5720 5720 5723 5729 5726 5734 5741 5746 5748 5742 5741 5738 5740 5737 5732 5727 5727 5723 5739 5744 5731 5738 5750 5752 5750 5748
5630 5636 5643 5645 5646 5654 5656 5662 5659 5663 5668 5670 5674 5675 5681 5685 5691 5694 5699 5702 5706 5715 5719 5724 5725 5726 5731 5733 5751 5748 5747 5742 5747 5744 5740 5737 5730 5736 5731 5732 5734 5744 5738 5742 5748 5748 5751
5623 5629 5634 5639 5639 5643 5650 5654 5658 5657 5661 5666 5667 5669 5674 5678 5685 5692 5694 5700 5703 5712 5717 5724 5725 5727 5732 5730 5745 5746 5744 5747 5747 5744 5735 5739 5737 5727 5730 5724 5742 5736 5720 5734 5746 5753 5750
5611 5618 5626 5630 5634 5633 5639 5642 5650 5652 5656 5657 5664 5662 5669 5673 5676 5687 5690 5697 5704 5708 5713 5717 5724 5728 5731 5743 5745 5736 5741 5740 5742 5739 5738 5738 5734 5725 5725 5731 5727 5724 5727 5716 5749 5746 5744
5607 5607 5616 5620 5622 5626 5629 5634 5637 5645 5649 5648 5655 5656 5662 5665 5671 5677 5687 5692 5705 5703 5711 5709 5723 5726 5729 5740 5732 5736 5736 5731 5735 5734 5734 5733 5729 5717 5721 5705 5710 5729 5717 5727 5736 5742 5732
5594 5600 5609 5610 5615 5618 5622 5625 5628 5636 5639 5642 5646 5648 5653 5658 5662 5669 5682 5693 5703 5698 5703 5711 5719 5712 5724 5726 5732 5729 5732 5728 5724 5725 5718 5717 5716 5709 5713 5710 5703 5722 5729 5734 5725 5731 5730
5580 5590 5594 5603 5609 5614 5621 5620 5621 5627 5629 5635 5637 5640 5646 5647 5656 5662 5675 5694 5699 5695 5700 5713 5716 5717 5722 5724 5728 5721 5728 5721 5721 5716 5704 5714 5704 5705 5724 5725 5719 5715 5713 5716 5732 5739 5718
5571 5578 5581 5593 5602 5607 5611 5614 5615 5615 5623 5623 5629 5632 5637 5634 5648 5652 5664 5675 5681 5671 5680 5706 5709 5710 5716 5714 5713 5719 5724 5704 5704 5705 5711 5705 5696 5720 5719 5711 5702 5704 5705 5714 5727 5732 5721
5564 5565 5573 5579 5589 5596 5601 5609 5610 5608 5613 5615 5621 5623 5627 5625 5635 5648 5658 5667 5669 5670 5670 5701 5708 5706 5708 5704 5710 5714 5714 5710 5700 5698 5702 5701 5712 5710 5702 5704 5693 5697 5698 5703 5706 5714 5717
5555 5555 5563 5565 5575 5585 5588 5600 5608 5605 5603 5603 5608 5613 5615 5618 5624 5650 5650 5660 5660 5656 5664 5691 5692 5702 5702 5701 5698 5720 5720 5709 5699 5693 5698 5700 5713 5698 5696 5694 5699 5685 5705 5703 5698 5696 5693
5540 5544 5553 5555 5560 5566 5575 5583 5596 5597 5594 5598 5596 5603 5605 5611 5630 5634 5648 5645 5648 5648 5642 5687 5687 5705 5705 5693 5701 5700 5714 5702 5688 5694 5687 5694 5695 5688 5689 5695 5699 5687 5695 5687 5689 5688 5690
5532 5536 5541 5546 5551 5556 5567 5573 5583 5586 5587 5591 5590 5589 5595 5600 5614 5631 5630 5633 5634 5635 5638 5669 5684 5683 5683 5688 5691 5697 5695 5699 5700 5687 5691 5694 5705 5696 5693 5697 5695 5691 5677 5687 5696 5697 5680
5523 5529 5533 5539 5543 5548 5554 5562 5566 5579 5583 5582 5578 5577 5582 5601 5611 5621 5618 5619 5613 5627 5675 5663 5672 5681 5684 5679 5677 5681 5682 5681 5673 5668 5680 5692 5692 5694 5689 5677 5690 5677 5670 5658 5667 5686 5677
5514 5519 5525 5531 5540 5543 5544 5551 5556 5566 5577 5572 5567 5564 5575 5590 5599 5605 5608 5599 5600 5660 5668 5672 5675 5676 5669 5677 5669 5669 5672 5672 5682 5674 5670 5666 5662 5673 5682 5672 5669 5665 5661 5647 5636 5660 5678
5509 5513 5517 5523 5529 5534 5537 5541 5548 5557 5561 5558 5556 5555 5565 5579 5582 5589 5594 5582 5625 5649 5676 5657 5663 5659 5656 5660 5655 5656 5661 5670 5676 5670 5651 5648 5649 5669 5666 5669 5661 5657 5645 5659 5642 5648 5648
5500 5503 5507 5513 5518 5524 5530 5537 5541 5547 5550 5549 5554 5552 5560 5574 5564 5572 5572 5599 5628 5652 5657 5657 5653 5662 5653 5654 5644 5645 5658 5668 5659 5660 5655 5641 5622 5649 5657 5654 5657 5649 5655 5630 5620 5605 5633
5488 5492 5498 5503 5508 5514 5521 5525 5531 5534 5538 5541 5542 5543 5570 5561 5550 5551 5570 5601 5619 5638 5636 5635 5649 5645 5650 5648 5648 5645 5643 5649 5654 5642 5641 5631 5607 5613 5623 5631 5636 5632 5630 5631 5626 5616 5604
5474 5479 5486 5494 5497 5502 5509 5515 5523 5529 5535 5532 5545 5545 5555 5550 5538 5560 5583 5602 5615 5623 5623 5627 5634 5646 5642 5643 5635 5633 5632 5641 5646 5638 5622 5617 5603 5585 5597 5619 5621 5621 5623 5617 5587 5604 5608
5462 5467 5473 5481 5486 5491 5497 5505 5513 5522 5528 5535 5543 5541 5532 5545 5547 5567 5578 5584 5603 5606 5614 5616 5620 5632 5641 5632 5617 5630 5630 5625 5630 5621 5613 5600 5584 5575 5584 5605 5614 5606 5613 5616 5611 5586 5583
5446 5451 5458 5465 5473 5477 5485 5494 5504 5513 5527 5538 5536 5518 5522 5537 5578 5575 5570 5580 5586 5597 5606 5611 5617 5620 5619 5618 5626 5614 5615 5610 5603 5602 5583 5578 5569 5570 5585 5610 5590 5569 5594 5597 5584 5561 5583
5429 5434 5441 5450 5459 5463 5472 5483 5495 5505 5527 5542 5536 5538 5548 5547 5563 5577 5572 5574 5574 5578 5592 5603 5604 5611 5612 5598 5608 5603 5604 5598 5583 5573 5576 5565 5559 5558 5571 5574 5571 5574 5563 5564 5559 5565 5557
5416 5418 5423 5433 5444 5449 5456 5464 5483 5497 5514 5528 5536 5551 5551 5558 5555 5569 5566 5575 5576 5585 5588 5590 5595 5602 5605 5599 5600 5594 5589 5587 5585 5564 5559 5542 5549 5541 5546 5560 5565 5568 5571 5571 5561 5560 5556
5405 5408 5413 5417 5427 5433 5443 5460 5475 5490 5500 5522 5536 5554 5560 5558 5554 5556 5578 5578 5580 5583 5589 5596 5596 5592 5592 5598 5597 5574 5571 5569 5571 5566 5545 5526 5527 5532 5557 5554 5563 5560 5573 5578 5579 5578 5562
5401 5401 5403 5411 5419 5425 5437 5451 5463 5472 5495 5519 5534 5541 5557 5556 5559 5567 5573 5577 5576 5582 5582 5588 5586 5583 5568 5558 5556 5552 5545 5535 5542 5544 5540 5520 5522 5527 5549 5538 5544 5583 5572 5567 5565 5561 5554
5398 5399 5403 5409 5415 5425 5434 5445 5453 5462 5478 5509 5525 5537 5556 5550 5560 5563 5569 5569 5566 5571 5570 5572 5564 5557 5551 5546 5528 5530 5530 5523 5529 5518 5523 5521 5517 5532 5538 5547 5572 5573 5554 5543 5539 5535 5531
5397 5400 5403 5409 5415 5423 5434 5441 5450 5468 5484 5498 5517 5530 5558 5559 5559 5569 5564 5567 5563 5561 5528 5517 5514 5523 5529 5520 5516 5538 5544 5555 5546 5533 5502 5496 5495 5517 5524 5527 5546 5551 5534 5527 5509 5509 5516
5398 5400 5404 5409 5415 5422 5431 5438 5449 5465 5485 5496 5513 5523 5548 5555 5553 5558 5564 5566 5567 5561 5528 5506 5505 5506 5510 5515 5521 5531 5541 5545 5544 5543 5514 5498 5493 5504 5514 5514 5534 5533 5516 5500 5472 5493 5479
5399 5402 5406 5411 5416 5423 5430 5438 5451 5468 5482 5494 5507 5518 5536 5521 5507 5520 5534 5560 5557 5558 5540 5503 5507 5495 5494 5506 5517 5528 5537 5535 5543 5550 5537 5530 5510 5508 5509 5500 5506 5515 5491 5467 5481 5467 5456
5403 5405 5406 5409 5416 5424 5431 5441 5451 5473 5485 5495 5499 5506 5516 5511 5488 5495 5499 5504 5511 5523 5521 5513 5527 5515 5511 5509 5512 5520 5517 5530 5534 5518 5536 5521 5526 5523 5517 5517 5502 5492 5479 5473 5465 5452 5442